Timeline UpdatesTrip UpdatesNews PostsPvt PostsTravel TipsAdmin PostsConv PostsFollowed PostsChat RequestsBlog PostsPNR Posts

Disclaimer
Search
 
 
Tue Sep 16, 2014 14:58:02 ISTHomeTrainsΣChainsAtlasPNRForumGalleryNewsFAQTripsMembersLoginFeedback
No Recent News for this Train
Other Trains in the News **new
Latest...
.
Sat Feb 22, 2014 (11:15PM)
⇐ Return Journey: Train# 58502

58501/Visakhapatnam - Kirandul Passenger

Time-Table HAS CHANGED.
Sep 03 (9:16PM)
Change Departure Station:
Change Arrival Station:
Post a Train Travel TipPost a Train Travel Tip **new
Post a Comment/Question/Picture/VideoPost a Comment/Question/Picture/Video
Pantry/Catering
✕ NO Pantry Car
✕ NO Catering
RSA - Rake Sharing
Rake/Coach Composition
One First Class, o­ne Sleeper Class, Two Second Class Chair Cars, 05 General Second Class Coaches and two Guard cum luggage vans.; News#123359
Loco
Official Loco Link:- VSKP WAG-5
News    PNR    Forum    Time-Table    Availability    Fare Chart    Map    Arr/Dep History    Trips    Gallery    ΣChains    X/O    Timeline    
Travel Time: 13h 55m    50 halts    Distance: 469 km    Avg Speed: 33 km/hr
Type: Passenger
Zone: ECoR/East Coast
Departs @ 06:50 (Avg 10m late)
Platform# 5
SMTWTFS
Visakhapatnam Junction/VSKP 
Arrives @ 20:45 (Avg 40m late)
Platform# ???
SMTWTFS
Kirandul/KRDL 

50 halts. 50 intermediate Stations between Visakhapatnam Junction and Kirandul

Show ALL intermediate Stations  Show Old Time-Table

#CodeStation NameX/OArrivesAvgDepartsAvgHaltPFDay#KmSpeedElevZoneAddress
1VSKP»Visakhapatnam Junction (8)»  -06:50+10510.02711mECoRVishakhapatnam 530001, Andhra Pradesh
2MIPMMarripalem (2)  07:01+007:02+01m215.03017mECoRVishakhapatnam, Andhra Pradesh
3SCMSimhachalam (2)X  07:09 07:08-07:10-1 2m218.04927mECoRVisakhapatnam, Andhra Pradesh
4PDTPendurti (7)X  07:21+2707:22+281m--117.06827mECoRVisakhapatnam, Andhra Pradesh
5KTVKottavalasa Junction (5)  07:31 07:30+3007:32+331 2m3126.04958mECoRVizianagaram District, Andhra Pradesh
6MVWMallividu  07:43+3707:44+371m--135.04076mECoRCoastal Andhra Region, Andhra Pradesh
7LVKLakkavarapukota new halt!!  07:53+2407:54+211m--141.07359mECoRLakkavarapukota, Odisha
8SUPShrungavarapukota  08:05 08:03+4008:06+421 3m--152.030103mECoRSrungavarapu kota, Andhra Pradesh
9BDVRBoddavara  08:20+4108:21+431m--159.031159mECoRECoR, Andhra Pradesh
10SLPMShivalingapuram  08:44+4108:45+421m--171.038332mECoRCoastal Andhra Region, Andhra Pradesh
11TXDTyada  08:56+4308:57+461m--178.026422mECoRVishakhapatnam, Andhra Pradesh
12CMDPChimidipalli  09:20+4709:21+471m--188.039606mECoRBorra, Andhra Pradesh
13BGHUBorra Guhalu (1)  09:39 09:35+4509:40+491 5m1197.039725mECoRBorra Guhalu, Andhra Pradesh
14KVLSKarakavalasa  09:57+5109:58+521m--1108.025891mECoRCoastal Andhra Region, Andhra Pradesh
15SMLGShimiliguda (1)  10:17+5110:18+521m11116.0351004mECoRWay to Araku, Andhra Pradesh
16ARKAraku (1)  10:40+4910:45+495m11129.042925mECoRAraku . ph.no. 08936-249672, Andhra Pradesh
17GPJGorapur  10:58+5210:59+521m--1138.042910mECoRJeypore Rd, Andhra Pradesh
18DPCDarliput  11:16+5611:17+561m--1150.055867mECoRDarliput, Odisha
19PFUPadua  11:29+1:0011:30+1:001m--1161.050877mECoRPaduwa Station, Odisha
20BHJABheja  11:42+1:0211:43+1:021m--1171.047886mECoRBheja Station, Odisha
21MKRDMachhakunda  11:57+1:0611:58+1:071m--1182.056880mECoRPadwa Rd, Odisha
22PBVPaliba  12:12+1:0912:13+1:101m--1195.024911mECoRPaliba Station, Odisha
23SUKUSuku  12:33+1:0112:34+1:011m--1203.031905mECoRSuku, Odisha
24KRPUKoraput Junction (3)  12:55+5013:00+535m--1214.028881mECoRkoraput ph.no. 06852-251502, Odisha
25MVFManabar  13:15+5913:16+1:051m--1221.042834mECoRManabar Station, Odisha
26JRTJartiX  13:29+1:0913:30+1:141m--1230.033768mECoRJarti Station, Odisha
27MVGMaligura  13:50+1:1913:51+1:201m--1241.042662mECoRMaligura Station, Odisha
28CTSChattriput  14:01+1:2114:02+1:241m--1248.026621mECoRJeypore, Odisha
29JYPJeypore (1)  14:22 14:18+1:1014:23+1:131 5m--1255.060595mECoRJeypore, Odisha
30DIRDhanapur OrissaX  14:32+1:1914:33+1:211m--1264.053559mECoRNational Highway 43, Odisha
31KDPAKhadapa  14:42+1:2014:43+1:201m--1272.024595mECoRKhadapa, Odisha
32CJSCharamula Kusum  14:53+1:1914:54+1:211m--1276.055592mECoRBhansuli Kotpad PMGSY Rd, Chhattisgarh
33KPRRKotapar Road  15:06+1:2115:07+1:221m--1287.053552mECoRBhansuli Kotpad PMGSY Rd, Chhattisgarh
34AGBAmbagaon  15:16+1:2215:17+1:221m--1295.055549mECoRAmbagaon, Chhattisgarh
35AGZAmagura  15:28+1:2115:29+1:211m--1305.053562mECoRMarkel, Chhattisgarh
36NKXNakati Semra  15:38+1:2215:39+1:221m--1313.017562mECoRJagdalpur, Chhattisgarh
37JDBJagdalpur  16:00+1:0516:05+1:045m--1319.060569mECoRJagdalpur, Chhattisgarh
38KMEZKumar Maranga  16:14+1:0816:15+1:081m--1328.053561mECoRNational Highway 16, Chhattisgarh
39TPQTopokal  16:24+1:0916:25+1:091m--1336.040557mECoRRaikot, Chhattisgarh
40BDXXBade Arapur  16:34+1:0916:35+1:091m--1342.039578mECoRBade Arapur, Chhattisgarh
41DMKDilmili  16:52+1:0616:53+1:061m--1353.039703mECoRDilmili, Chhattisgarh
42SZYSilak Jhori  17:10+1:0817:11+1:081m--1364.042702mECoRKodenar, Chhattisgarh
43KMSDKumar Sadra  17:24+1:0917:25+1:091m--1373.052656mECoRTirthum, Chhattisgarh
44KKLUKaklur  17:40+1:1317:41+1:141m--1386.048576mECoRKaklur, Chhattisgarh
45KWGNKawargaon  17:56+1:1617:57+1:161m--1398.042527mECoRKawargaon, Chhattisgarh
46DBFDabpal  18:10+1:1718:11+1:171m--1407.047464mECoRDabpal, Chhattisgarh
47GIZGidam  18:25+1:1818:26+1:181m--1418.028408mECoRNational Highway 16, Chhattisgarh
48DWZDantewara  18:41+1:1818:42+1:191m11425.037362mECoRDantewada, Chhattisgarh
49KMLRKamalur  19:03+1:1919:04+1:211m--1438.042434mECoRKamalur, Chhattisgarh
50BHNSBhansi  19:21+1:2419:22+1:241m--1450.038521mECoRDhurli-Basenpur Rd, Chhattisgarh
51BCHLBacheli  19:38+1:2419:39+1:241m--1460.08608mECoRDhurli-Basenpur Rd, Chhattisgarh
52KRDL•Kirandul•  20:45+40---1469.0-631mECoRKirandul, Chhattisgarh
Scroll to Top
Scroll to Bottom